[[{"header":{"parameterUnit":"m.s-1","parameterCategory":1,"la1":30.2992,"la2":30.254,"lo1":-89.0895,"lo2":-89.0443,"dy":0.0025,"dx":0.0025,"nx":19,"ny":19,"refTime":"2026-04-16T09:00:00:Z","depth":0,"parameterNumber":2,"parameterNumberName":"U-component_of_WINDS"},"data":[0,0,0,-0.8578,-0.8577,-0.8516,-0.8515,-0.8452,-0.8452,0,0,0,0,0,0,0,0,0,0,0,-0.8606,-0.8606,-0.8578,-0.8577,-0.8516,-0.8515,-0.8452,-0.8452,0,0,0,0,0,0,0,0,0,0,0,-0.8606,-0.8606,-0.8605,-0.8577,-0.8516,-0.8515,-0.8452,-0.8493,0,0,0,0,0,0,0,0,0,0,-0.855,-0.8584,-0.8606,-0.8605,-0.8577,-0.8516,-0.8515,-0.8495,-0.849,-0.8486,0,-0.8485,0,-0.8468,-0.8448,-0.8448,0,0,0,-0.857,-0.8588,-0.8563,-0.8605,-0.8576,-0.8516,-0.8541,-0.8492,-0.8487,-0.8481,-0.8484,-0.8481,-0.8467,-0.8448,-0.8448,-0.8449,-0.8449,0,0,-0.8573,-0.8599,-0.8567,-0.8561,-0.8571,-0.8543,-0.854,-0.8489,-0.8494,-0.8484,-0.848,-0.8466,-0.8448,-0.8447,-0.8449,-0.8449,0,0,0,-0.8588,-0.8602,-0.8578,-0.8564,-0.8552,-0.8542,-0.8537,-0.8497,-0.8487,-0.8479,-0.8465,-0.8447,-0.8447,-0.8448,-0.8449,-0.8491,0,0,0,-0.8589,-0.8611,-0.858,-0.8595,-0.8553,-0.8523,-0.8546,-0.849,-0.8484,-0.8465,-0.8447,-0.8446,-0.8448,-0.8449,-0.8489,-0.8506,0,0,0,-0.8606,-0.8612,-0.8607,-0.8597,-0.8572,-0.8523,-0.851,-0.8488,-0.8475,-0.8448,-0.8446,-0.8448,-0.8448,-0.8487,-0.8503,-0.8515,0,0,0,-0.8632,-0.8645,-0.8608,-0.8617,-0.8572,-0.8551,-0.851,-0.8493,-0.8474,-0.8447,-0.8448,-0.8449,-0.8487,-0.8501,-0.8513,-0.8528,-0.8537,0,0,-0.8663,-0.8649,-0.8652,-0.8618,-0.8609,-0.8558,-0.8555,-0.8513,-0.8487,-0.8463,-0.8463,-0.849,-0.8503,-0.8514,-0.858,-0.8588,0,0,0,-0.8671,-0.8674,-0.8666,-0.865,-0.8619,-0.8594,-0.855,-0.8535,-0.8514,-0.848,-0.8496,-0.8503,-0.8509,-0.8515,-0.8521,-0.8524,-0.8453,-0.8453,-0.8453,-0.8751,-0.8717,-0.872,-0.8679,-0.8665,-0.862,-0.8605,-0.8577,-0.8546,-0.8551,-0.8543,-0.8587,-0.8596,-0.86,-0.8604,-0.8549,-0.8549,-0.8549,-0.8549,-0.8793,-0.8791,-0.8751,-0.874,-0.8704,-0.8694,-0.8652,-0.8631,-0.8617,-0.859,-0.8593,-0.8566,-0.8609,-0.8611,-0.8552,-0.8552,-0.8551,-0.8551,-0.8551,-0.8841,-0.8834,-0.8816,-0.879,-0.8775,-0.8733,-0.8721,-0.8689,-0.8659,-0.8662,-0.865,-0.865,-0.8644,-0.8659,-0.8659,-0.8659,-0.8659,-0.8659,-0.8659,-0.8898,-0.8876,-0.887,-0.884,-0.8826,-0.8803,-0.876,-0.8746,-0.8721,-0.8699,-0.8698,-0.8668,-0.862,-0.8609,-0.8662,-0.8661,-0.8661,-0.8661,-0.8661,-0.8951,-0.8934,-0.8925,-0.8912,-0.8873,-0.8861,-0.882,-0.8794,-0.8777,-0.8773,-0.8742,-0.8712,-0.8696,-0.8691,-0.8681,-0.8749,-0.8749,-0.8749,-0.8749,-0.8991,-0.8981,-0.8965,-0.8945,-0.8922,-0.8885,-0.8877,-0.8844,-0.8807,-0.8795,-0.8781,-0.8765,-0.8761,-0.8747,-0.8741,-0.8731,-0.8811,-0.8811,-0.8811,-0.9022,-0.9008,-0.9007,-0.8971,-0.8939,-0.8913,-0.8904,-0.8883,-0.8838,-0.8812,-0.8785,-0.8782,-0.8757,-0.875,-0.8723,-0.8714,-0.8695,0,0]},{"header":{"parameterUnit":"m.s-1","parameterCategory":1,"la1":30.2992,"la2":30.254,"lo1":-89.0895,"lo2":-89.0443,"dy":0.0025,"dx":0.0025,"nx":19,"ny":19,"refTime":"2026-04-16T09:00:00:Z","depth":0,"parameterNumber":3,"parameterNumberName":"V-component_of_WINDS"},"data":[0,0,0,3.9111,3.9111,3.9102,3.9101,3.9085,3.9085,0,0,0,0,0,0,0,0,0,0,0,3.9111,3.9111,3.9111,3.9111,3.9102,3.9101,3.9085,3.9085,0,0,0,0,0,0,0,0,0,0,0,3.9111,3.9111,3.9111,3.9111,3.9102,3.9101,3.9085,3.9093,0,0,0,0,0,0,0,0,0,0,3.9103,3.9101,3.9111,3.9111,3.911,3.9102,3.9101,3.9094,3.9093,3.9087,0,3.9082,0,3.9083,3.9083,3.9083,0,0,0,3.9112,3.9102,3.9102,3.9111,3.911,3.9102,3.9106,3.9093,3.9092,3.9086,3.9082,3.9082,3.9083,3.9083,3.9083,3.905,3.905,0,0,3.9112,3.9108,3.9103,3.9101,3.9103,3.9106,3.9106,3.9093,3.9088,3.9082,3.9081,3.9083,3.9083,3.9083,3.905,3.905,0,0,0,3.9113,3.9108,3.9109,3.9102,3.9101,3.9106,3.9105,3.9088,3.9089,3.9081,3.9083,3.9083,3.9083,3.905,3.905,3.9036,0,0,0,3.9113,3.9109,3.9109,3.9106,3.9101,3.9094,3.9101,3.909,3.9089,3.9083,3.9083,3.9082,3.9051,3.905,3.9037,3.903,0,0,0,3.9112,3.9109,3.9107,3.9106,3.9102,3.9095,3.9095,3.909,3.9089,3.9083,3.9082,3.9051,3.905,3.9038,3.9031,3.9021,0,0,0,3.911,3.9093,3.9106,3.9088,3.9102,3.9087,3.9095,3.9083,3.9076,3.9083,3.9051,3.905,3.9038,3.9032,3.9022,3.9011,3.9006,0,0,3.9086,3.909,3.9079,3.9091,3.9073,3.9089,3.9068,3.9065,3.9067,3.9055,3.9055,3.9037,3.9031,3.9021,3.8982,3.8978,0,0,0,3.907,3.9063,3.9059,3.9053,3.9052,3.905,3.9051,3.905,3.9041,3.9061,3.9031,3.9027,3.9021,3.9016,3.9013,3.9009,3.9048,3.9048,3.9048,3.9028,3.9035,3.9018,3.9024,3.9019,3.9021,3.9017,3.9016,3.9022,3.9015,3.9011,3.8987,3.8981,3.8979,3.8974,3.9007,3.9007,3.9007,3.9007,3.8993,3.8984,3.8996,3.8984,3.8991,3.898,3.8983,3.8988,3.8979,3.899,3.8985,3.8996,3.8975,3.8971,3.9006,3.9006,3.9006,3.9006,3.9006,3.8966,3.8963,3.8964,3.8958,3.8953,3.8959,3.8951,3.8957,3.8963,3.8958,3.8955,3.8955,3.8956,3.8956,3.8956,3.8956,3.8956,3.8956,3.8956,3.8938,3.8939,3.8932,3.8932,3.893,3.8929,3.8933,3.8931,3.893,3.8935,3.8935,3.8943,3.8972,3.8979,3.8955,3.8955,3.8955,3.8955,3.8955,3.8899,3.8909,3.8899,3.8897,3.8898,3.8893,3.8902,3.8898,3.8898,3.8894,3.8903,3.8924,3.8927,3.893,3.8936,3.8902,3.8902,3.8902,3.8902,3.8876,3.8879,3.8871,3.8869,3.8867,3.8875,3.8863,3.8867,3.8872,3.8872,3.8878,3.8887,3.8889,3.8892,3.8895,3.89,3.8858,3.8858,3.8858,3.8853,3.8857,3.8845,3.8852,3.8854,3.8855,3.8845,3.8841,3.8849,3.8856,3.8873,3.8874,3.8888,3.8893,3.8899,3.8904,3.8914,0,0]}]]